カタログに戻る

FENGYUN 1C DEB

運用中SSO
NORAD 29948·DEBRIS·🇨🇳 China

打ち上げ May 10, 1999 から Taiyuan Satellite Launch Center

Loading…

次のパス (今後24時間)

TLE

最新Source: Space-Track

元期: Sep 14, 2026, 10:18 UTC

1 29948U 99025JW  26257.42959836  .00000237  00000-0  16473-3 0  9991
2 29948  98.8504 242.1000 0084369 179.7265 334.0473 14.06310931  8510

AllMySatでFENGYUN 1C DEBをリアルタイム追跡

Download on the App Store